Wind_Speed
38 38 38 38 36 32 29 27 32 40 45 43 40 35 26 25 20 19 18 14 14 16 19 16 14 14 14 7 7 14 19 17 17 16 12 18 19 17 17 12 12 19 28 34
40 42 43 42 41 38 35 30 30 31 41 47 43 39 31 27 22 22 19 15 8 10 15 16 12 14 17 9 8 7 14 21 20 19 17 20 15 14 15 15 20 29 34 36
35 40 44 43 43 42 40 37 34 32 31 39 46 41 35 33 23 23 21 13 8 8 11 13 9 9 12 7 8 7 11 16 18 20 22 21 21 23 22 19 26 26 31 35
32 35 39 44 45 44 43 40 38 37 36 33 39 43 39 33 28 24 21 15 9 6 5 9 7 4 7 5 3 4 7 12 18 20 25 23 22 24 24 19 24 23 25 30
29 32 36 40 44 46 46 44 41 40 40 37 32 38 37 35 32 27 22 16 10 5 1 7 6 0 2 4 4 4 4 9 13 20 25 27 25 25 25 22 22 18 19 22
28 30 33 36 39 40 43 45 45 43 42 42 38 43 39 41 37 34 28 19 17 10 6 1 5 3 1 1 3 4 7 10 13 18 19 27 27 23 20 19 14 14 18 16
26 27 30 33 37 39 40 40 44 47 44 45 44 48 44 42 38 38 31 23 19 15 9 7 2 1 5 5 5 5 7 13 13 17 21 24 27 25 22 19 19 22 14 18
22 25 27 29 32 35 38 40 40 43 46 46 46 44 50 47 47 40 33 33 23 21 19 13 6 6 7 11 10 8 7 11 14 16 17 18 20 20 19 17 16 19 18 17
20 21 24 25 27 29 30 32 36 39 43 46 47 49 49 51 52 52 49 46 39 29 24 18 11 8 11 13 11 13 14 14 16 16 19 21 21 21 20 18 19 19 18 17
20 20 20 22 25 27 27 29 32 36 39 43 46 50 49 50 52 53 56 54 53 41 34 24 17 12 17 16 13 12 16 17 18 15 16 18 20 20 22 22 19 17 15 16
21 19 19 20 24 26 26 28 32 35 38 39 42 47 48 51 51 49 47 49 46 48 41 31 23 17 18 24 20 18 15 15 15 14 12 11 14 17 18 17 17 18 18 14
23 20 19 20 20 22 23 24 25 27 31 35 38 41 46 49 52 52 48 49 48 43 44 39 30 25 22 28 28 26 22 19 16 15 14 15 15 13 14 15 16 13 10 7
27 25 23 22 24 26 26 25 24 24 25 27 31 37 42 46 52 54 52 52 55 51 52 44 39 32 27 31 28 27 28 24 23 19 14 15 16 15 16 15 14 12 14 13
33 32 28 26 30 30 30 28 25 24 25 27 29 33 37 44 48 55 56 53 56 55 54 51 45 38 34 32 33 34 30 28 29 26 22 16 17 17 16 16 16 15 16 17
34 33 30 31 33 34 33 31 29 27 27 29 32 32 35 40 47 52 59 59 60 60 58 57 51 45 38 35 33 32 32 29 28 28 28 23 21 20 19 17 16 15 14 13
29 29 31 30 29 31 32 34 35 35 33 34 36 31 34 38 43 50 57 62 63 67 68 63 58 52 47 43 38 36 34 33 31 30 31 29 25 23 22 21 19 18 16 15
26 25 26 27 24 24 27 29 29 32 33 35 36 35 29 35 39 44 52 60 66 67 69 73 71 65 56 52 47 41 42 37 36 36 35 33 30 27 24 23 23 21 19 19
34 32 31 31 29 28 31 32 33 32 30 32 36 38 37 33 37 40 45 55 62 67 69 68 73 72 65 61 58 51 46 44 41 38 37 36 35 34 30 28 25 24 21 19
38 34 33 30 30 33 32 33 30 27 28 30 33 33 36 38 40 38 42 46 58 64 71 72 68 76 72 66 63 59 55 49 43 41 41 41 37 35 34 33 29 25 23 22
37 35 33 32 31 28 30 30 31 28 29 28 26 27 32 39 44 41 40 41 46 62 68 73 76 75 78 75 70 65 61 57 51 47 42 43 43 39 35 33 32 30 25 28
37 33 31 32 33 30 30 28 29 28 25 20 23 28 31 35 42 42 44 44 44 50 63 72 76 78 78 81 76 72 67 61 59 54 51 47 46 47 44 40 37 36 33 34
36 34 30 31 26 29 26 26 26 25 21 13 18 23 30 35 38 43 47 49 48 47 53 66 73 77 79 78 81 77 75 71 67 63 57 54 52 49 53 43 45 43 43 44
35 31 32 27 25 27 26 24 24 24 24 24 25 27 28 31 35 40 47 51 53 53 51 58 67 74 76 78 80 79 79 78 74 70 66 60 55 54 53 49 53 46 49 52
37 31 33 31 30 30 28 27 24 26 27 32 33 29 28 28 28 30 38 45 50 54 54 54 58 65 79 77 77 80 78 80 79 78 75 71 65 60 56 49 52 53 53 51
39 34 35 34 33 32 31 31 31 29 30 30 29 27 26 26 28 28 30 40 44 49 54 53 56 57 66 76 80 81 79 79 83 84 84 79 73 71 68 62 57 62 61 59
42 37 37 33 32 31 28 31 34 32 33 32 30 26 27 27 27 28 28 32 40 44 49 53 52 52 53 66 76 79 78 80 81 83 89 86 80 77 79 77 75 70 67 60
Wind_Direction
237 232 234 234 236 238 238 232 241 228 228 232 234 241 240 257 263 268 278 309 317 353 17 20 21 12 23 72 143 144 163 153 159 166 159 148 145 153 141 126 126 135 135 129
235 234 234 233 235 237 239 237 238 242 230 228 233 237 234 248 256 264 272 280 308 3 16 13 29 29 22 56 125 135 154 175 175 175 173 167 149 142 144 113 113 131 134 140
238 235 236 235 234 235 235 236 235 239 242 231 232 234 238 240 245 255 259 264 295 329 6 15 12 30 27 32 52 81 117 138 156 174 171 174 162 156 126 118 110 126 138 139
240 235 234 234 235 234 235 236 235 234 235 238 230 233 234 234 236 239 246 235 266 273 3 19 10 37 47 42 102 52 105 127 147 160 175 164 158 143 134 124 116 122 141 152
240 235 232 231 231 233 235 234 233 234 235 235 230 224 229 227 231 235 244 234 226 228 27 2 21 163 64 61 124 70 139 108 141 156 168 174 169 160 149 141 130 135 145 154
238 234 233 233 232 233 235 236 234 233 233 232 224 217 224 226 227 233 237 235 236 194 256 303 359 315 169 276 19 94 103 140 143 158 171 176 179 179 172 174 166 171 167 166
240 236 234 233 233 234 235 237 236 234 234 233 226 218 217 220 227 226 232 234 242 220 242 252 183 227 207 216 220 144 108 125 137 133 147 167 184 194 204 190 176 176 181 180
240 239 236 234 233 236 235 235 237 237 235 234 231 224 222 220 227 222 224 244 242 231 240 251 205 201 192 200 213 181 163 154 151 158 153 154 167 177 192 209 203 194 198 181
238 230 228 230 227 231 237 238 239 241 238 235 233 228 222 223 223 226 235 243 248 238 227 222 229 206 191 204 197 195 189 185 188 182 178 176 184 185 190 200 208 217 211 221
232 230 226 224 226 224 224 227 232 237 240 238 234 232 228 225 224 227 234 241 245 238 235 224 206 210 200 186 188 198 195 199 208 205 202 201 195 198 199 202 214 226 237 244
236 238 235 237 239 236 226 227 229 234 238 240 238 237 233 230 225 224 225 222 229 230 230 224 213 203 209 187 185 193 193 181 188 183 181 183 202 207 220 227 228 234 247 268
243 249 248 243 236 238 232 228 231 237 242 244 242 239 237 232 228 223 223 216 212 228 227 218 216 208 204 197 185 188 184 185 167 157 148 148 142 155 175 198 210 217 200 206
242 249 249 247 243 240 241 235 230 237 246 248 246 240 239 235 229 224 222 220 210 220 227 214 214 212 203 204 198 184 182 190 186 185 177 166 166 158 153 157 165 162 149 151
240 248 250 246 247 248 246 246 245 248 256 256 249 242 236 235 230 226 221 221 216 218 225 220 212 210 208 204 205 204 202 197 197 198 195 185 184 187 188 171 160 156 149 144
243 251 256 253 250 252 254 253 252 250 258 261 258 249 237 236 232 225 223 221 219 215 215 225 220 208 210 209 209 212 203 201 203 197 200 201 193 196 198 191 185 183 178 173
242 249 252 255 254 254 259 257 256 258 256 258 259 260 243 238 235 228 223 222 222 219 213 223 227 218 215 217 210 213 212 207 207 208 206 209 214 207 205 206 201 193 195 198
239 240 247 248 252 256 256 257 253 251 249 254 256 260 261 243 241 235 228 225 224 223 222 222 228 231 223 216 216 216 215 211 213 213 213 218 215 216 220 221 228 220 210 212
248 247 246 252 254 255 262 260 257 257 257 255 252 254 259 249 245 238 234 228 226 225 226 225 224 226 228 225 219 219 218 213 217 222 226 223 223 221 221 227 227 230 233 235
253 255 256 256 250 251 252 252 256 262 261 260 258 255 258 253 244 245 238 233 227 225 226 228 225 222 225 225 224 221 221 220 221 224 229 230 230 225 225 232 233 236 240 246
255 258 260 262 260 257 245 248 261 262 259 260 260 258 254 249 243 240 245 240 234 229 227 229 227 224 223 224 224 225 222 222 227 231 228 231 231 231 230 233 238 241 242 262
252 251 253 254 257 256 250 249 255 256 256 261 264 262 256 253 249 244 242 242 238 234 232 231 230 227 226 227 227 225 226 225 228 230 234 229 232 233 232 227 233 246 238 241
240 240 245 252 258 258 257 255 255 255 243 279 278 275 266 256 251 247 244 245 242 237 235 235 234 231 228 229 231 229 229 228 229 231 233 233 232 239 233 233 241 242 240 243
238 234 231 239 251 254 254 256 252 250 246 260 274 280 278 267 257 254 247 247 245 242 235 233 233 236 232 229 230 231 231 229 229 227 234 231 235 235 234 228 238 243 248 244
237 232 227 237 247 252 255 256 256 261 263 262 266 282 283 276 272 270 256 249 246 244 243 238 234 237 236 232 230 231 231 230 230 231 234 234 233 233 227 227 234 238 243 247
236 232 232 235 241 250 257 252 252 259 262 268 266 280 289 293 282 279 263 251 247 243 242 243 239 235 233 233 231 232 231 232 231 231 234 237 235 231 228 225 231 235 237 248
236 237 235 238 242 249 259 256 255 260 264 270 266 277 291 295 295 286 275 258 246 243 242 242 242 242 237 226 229 230 232 233 232 232 233 235 238 236 232 234 238 238 238 244
Height
10886 10890 10893 10894 10897 10900 10904 10907 10908 10915 10920 10924 10929 10933 10938 10937 10938 10939 10942 10944 10943 10941 10937 10934 10930 10926 10920 10917 10916 10916 10919 10923 10926 10930 10933 10937 10940 10943 10947 10948 10947 10947 10950 10954
10875 10880 10882 10887 10889 10894 10897 10902 10904 10907 10913 10917 10923 10928 10935 10935 10937 10938 10940 10943 10944 10941 10938 10935 10932 10929 10924 10922 10920 10918 10920 10922 10926 10930 10934 10939 10944 10947 10950 10950 10949 10951 10955 10957
10866 10871 10874 10878 10882 10885 10889 10895 10900 10903 10906 10911 10915 10923 10928 10932 10936 10937 10939 10942 10942 10942 10940 10939 10936 10932 10928 10925 10924 10921 10921 10921 10925 10931 10934 10940 10945 10950 10951 10953 10953 10956 10959 10962
10855 10860 10863 10867 10872 10876 10880 10887 10892 10897 10900 10904 10910 10916 10922 10928 10932 10936 10936 10939 10941 10943 10942 10941 10939 10936 10933 10930 10925 10924 10924 10925 10926 10931 10935 10940 10946 10950 10953 10957 10957 10960 10963 10966
10845 10849 10852 10855 10861 10866 10871 10876 10883 10889 10892 10897 10903 10908 10916 10921 10927 10931 10934 10936 10940 10942 10941 10940 10941 10940 10937 10933 10932 10930 10926 10929 10931 10931 10935 10941 10946 10950 10953 10959 10962 10964 10967 10969
10836 10840 10844 10849 10854 10859 10863 10868 10874 10879 10884 10890 10896 10902 10910 10915 10922 10926 10930 10933 10936 10939 10939 10939 10938 10940 10939 10936 10934 10934 10933 10934 10935 10936 10936 10940 10945 10951 10954 10958 10964 10967 10969 10971
10830 10834 10838 10842 10846 10851 10855 10860 10866 10870 10876 10880 10888 10896 10904 10909 10914 10920 10924 10929 10933 10937 10939 10938 10938 10939 10940 10939 10938 10936 10935 10937 10938 10939 10940 10942 10946 10950 10954 10960 10963 10967 10969 10971
10825 10828 10831 10835 10839 10843 10847 10853 10857 10860 10866 10871 10878 10888 10895 10902 10908 10913 10919 10922 10928 10934 10936 10938 10937 10939 10940 10941 10940 10938 10937 10940 10942 10944 10945 10945 10947 10951 10955 10959 10963 10965 10968 10971
10819 10822 10826 10830 10835 10838 10841 10845 10849 10852 10855 10861 10868 10876 10884 10892 10898 10906 10911 10916 10922 10930 10934 10937 10939 10938 10939 10940 10941 10940 10940 10940 10943 10945 10947 10947 10948 10951 10954 10958 10961 10963 10966 10969
10815 10818 10822 10825 10827 10832 10836 10839 10842 10843 10847 10852 10860 10865 10876 10883 10891 10897 10903 10908 10915 10923 10928 10932 10935 10937 10939 10939 10940 10942 10942 10942 10943 10943 10946 10950 10950 10949 10951 10954 10958 10961 10964 10966
10811 10815 10818 10821 10823 10826 10831 10834 10836 10837 10840 10845 10852 10857 10866 10872 10880 10886 10891 10898 10903 10913 10921 10926 10930 10934 10937 10936 10938 10941 10943 10943 10944 10945 10945 10948 10952 10952 10951 10952 10955 10959 10962 10964
10807 10811 10814 10817 10819 10821 10825 10828 10831 10832 10835 10838 10843 10849 10853 10859 10867 10873 10880 10888 10896 10903 10914 10920 10924 10929 10932 10935 10935 10938 10942 10944 10945 10948 10949 10950 10953 10955 10955 10955 10956 10958 10962 10966
10803 10806 10810 10812 10814 10815 10818 10822 10825 10827 10829 10831 10835 10838 10843 10848 10855 10862 10871 10880 10889 10896 10903 10912 10918 10923 10929 10933 10936 10938 10940 10943 10944 10948 10951 10953 10954 10957 10958 10959 10959 10960 10962 10966
10796 10800 10804 10808 10808 10810 10814 10818 10821 10823 10824 10824 10826 10827 10831 10836 10842 10852 10861 10870 10879 10888 10893 10902 10910 10916 10923 10928 10932 10935 10939 10941 10944 10945 10949 10952 10955 10957 10959 10960 10963 10964 10964 10966
10789 10793 10798 10800 10802 10803 10807 10811 10814 10816 10817 10815 10816 10818 10822 10825 10831 10838 10850 10859 10867 10876 10884 10890 10900 10907 10914 10922 10927 10932 10935 10939 10941 10943 10947 10949 10951 10954 10958 10960 10961 10964 10966 10968
10783 10787 10790 10792 10794 10797 10798 10801 10805 10807 10808 10807 10807 10809 10813 10816 10820 10827 10835 10846 10854 10863 10873 10881 10888 10896 10905 10912 10918 10924 10928 10932 10936 10940 10944 10945 10947 10949 10955 10957 10960 10961 10964 10966
10776 10779 10782 10784 10787 10790 10791 10792 10795 10796 10797 10799 10801 10801 10804 10808 10811 10817 10824 10833 10841 10849 10858 10869 10876 10884 10892 10901 10909 10914 10921 10926 10928 10933 10938 10941 10942 10944 10947 10951 10955 10957 10959 10962
10768 10771 10774 10776 10779 10783 10783 10783 10784 10787 10790 10791 10792 10794 10795 10801 10802 10807 10810 10818 10826 10836 10846 10852 10860 10869 10878 10886 10896 10904 10911 10917 10922 10926 10931 10934 10938 10939 10941 10944 10947 10952 10954 10957
10757 10762 10765 10768 10772 10775 10775 10775 10776 10779 10781 10782 10782 10785 10788 10789 10792 10797 10801 10806 10812 10821 10829 10836 10846 10854 10863 10872 10880 10890 10899 10906 10913 10918 10923 10927 10930 10932 10936 10938 10941 10946 10948 10951
10750 10753 10757 10759 10761 10765 10766 10769 10770 10771 10771 10773 10775 10776 10777 10776 10777 10788 10791 10797 10800 10806 10814 10822 10830 10839 10847 10856 10866 10876 10884 10893 10901 10907 10914 10917 10920 10923 10926 10930 10934 10937 10940 10943
10743 10746 10750 10751 10753 10755 10757 10762 10763 10764 10765 10766 10767 10768 10768 10768 10771 10777 10781 10785 10790 10795 10800 10805 10814 10825 10835 10843 10852 10862 10871 10880 10887 10893 10900 10906 10909 10914 10918 10922 10926 10930 10933 10936
10736 10739 10740 10744 10746 10747 10750 10753 10755 10757 10758 10760 10760 10760 10758 10759 10760 10764 10768 10772 10777 10784 10789 10792 10798 10807 10819 10828 10838 10849 10857 10865 10871 10879 10886 10892 10898 10903 10908 10912 10916 10920 10924 10926
10725 10730 10734 10737 10739 10740 10742 10746 10749 10751 10753 10753 10752 10752 10751 10751 10752 10753 10755 10758 10762 10767 10774 10779 10783 10791 10801 10812 10821 10832 10841 10849 10858 10865 10870 10876 10883 10889 10895 10898 10905 10908 10911 10915
10717 10721 10726 10730 10731 10733 10736 10739 10742 10745 10746 10745 10745 10745 10742 10741 10743 10742 10742 10745 10747 10752 10756 10762 10769 10775 10783 10795 10805 10812 10823 10833 10842 10849 10854 10860 10867 10874 10879 10884 10889 10895 10899 10901
10707 10712 10716 10720 10723 10726 10727 10730 10733 10735 10736 10736 10736 10736 10734 10733 10733 10733 10731 10732 10735 10740 10743 10746 10753 10758 10765 10776 10785 10793 10805 10814 10821 10830 10837 10844 10852 10858 10864 10869 10875 10879 10883 10887
10698 10703 10708 10712 10715 10717 10719 10722 10724 10726 10727 10726 10727 10726 10725 10724 10724 10723 10721 10722 10724 10726 10730 10734 10738 10744 10749 10757 10766 10778 10786 10793 10803 10810 10818 10828 10835 10842 10846 10853 10860 10864 10868 10872